Tracking 30264 objects as of 15-Feb-2025
HD Live streaming from Space Station
objects crossing your sky now

STARLINK-32672

Track STARLINK-32672 now!
10-day predictions
STARLINK-32672 is classified as:


NORAD ID: 62195
Int'l Code: 2024-229D
Perigee: 475.9 km
Apogee: 477.5 km
Inclination: 43.0 °
Period: 94.0 minutes
Semi major axis: 6847 km
RCS: Unknown
Launch date: December 4, 2024
Source: United States (US)
Launch site: AIR FORCE EASTERN TEST RANGE (AFETR)
Your satellite tracking list
Your tracking list is empty




NASA's NSSDC Master Catalog

Two Line Element Set (TLE):
1 62195U 24229D   25046.08307199 -.00000347  00000-0 -22536-5 0  9995
2 62195  43.0030 300.4329 0001109 269.8992  90.1734 15.32097497 11274
Source of the keplerian elements: AFSPC